M I D A S
Marine Information and Data Acquisition System
Tripno 850 of the Zeeleeuw from 2005-02-23 07:26:07 to 2005-02-23 14:39:23
Back to CruiseResearch ActivitiesStationsMapUnderway DataData graphs

EquipmentUnitsComments
TimeDGPSUTC
LatitudeDGPSDM.mWGS84
LongitudeDGPSDM.mWGS84
SpeedMeteo Stationm/sRelative wind speed
DirectionMeteo StationdegRelative wind direction
TemperatureMeteo Stationdeg CelciusAir temperature
PressureMeteo StationPaAtmospheric pressure
HumidityMeteo Station%Relative humidity
Missing or incorrect values are displayed as -999
Metereological data collected by the RV Zeeleeuw from 2005-02-23 07:27:59 to 2005-02-23 14:45:50
                                                                                    Next 1000 lines
Time Latitude Longitude Speed Direction Temperature Pressure Humidity
2005-02-23 07:28:10 51°13.595 2°56.096 1.8 42 -0.7 101160 77
2005-02-23 07:28:15 51°13.596 2°56.092 1.3 332 -0.7 101160 77
2005-02-23 07:28:19 51°13.597 2°56.088 0.9 342 -0.7 101160 77
2005-02-23 07:28:25 51°13.599 2°56.081 0.5 318 -0.7 101160 77
2005-02-23 07:28:30 51°13.602 2°56.075 1.1 241 -0.7 101170 77
2005-02-23 07:28:35 51°13.604 2°56.067 1.2 228 -0.7 101170 77
2005-02-23 07:28:40 51°13.606 2°56.06 1 228 -0.7 101170 77
2005-02-23 07:28:45 51°13.608 2°56.052 0.8 228 -0.7 101170 77
2005-02-23 07:28:49 51°13.61 2°56.046 0.6 238 -0.7 101170 77
2005-02-23 07:28:55 51°13.613 2°56.038 1.3 42 -0.7 101160 77
2005-02-23 07:28:58 51°13.614 2°56.034 1.8 327 -0.7 101160 77
2005-02-23 07:29:05 51°13.616 2°56.028 1.9 345 -0.7 101170 77
2005-02-23 07:29:10 51°13.617 2°56.026 1.8 339 -0.7 101170 77
2005-02-23 07:29:15 51°13.617 2°56.025 2.2 341 -0.7 101170 77
2005-02-23 07:29:19 51°13.617 2°56.026 1.9 329 -0.7 101170 77
2005-02-23 07:29:24 51°13.616 2°56.027 2.1 322 -0.7 101170 77
2005-02-23 07:29:29 51°13.615 2°56.03 3.9 338 -0.7 101170 77
2005-02-23 07:29:33 51°13.614 2°56.033 3.5 323 -0.7 101160 77
2005-02-23 07:29:38 51°13.612 2°56.036 3.6 323 -0.7 101160 77
2005-02-23 07:29:45 51°13.609 2°56.041 3.4 313 -0.7 101170 77
2005-02-23 07:29:49 51°13.607 2°56.045 4.7 316 -0.7 101170 77
2005-02-23 07:29:54 51°13.604 2°56.049 3.4 346 -0.7 101170 77
2005-02-23 07:29:59 51°13.601 2°56.053 2.9 342 -0.7 101160 77
2005-02-23 07:30:02 51°13.599 2°56.057 3.2 350 -0.7 101160 77
2005-02-23 07:30:09 51°13.594 2°56.064 3.3 331 -0.7 101160 77
2005-02-23 07:30:14 51°13.591 2°56.07 3.9 333 -0.7 101160 77
2005-02-23 07:30:19 51°13.587 2°56.075 5.4 334 -0.7 101170 77
2005-02-23 07:30:24 51°13.583 2°56.081 4.5 329 -0.7 101160 77
2005-02-23 07:30:30 51°13.578 2°56.088 4 327 -0.7 101160 77
2005-02-23 07:30:34 51°13.574 2°56.094 3.8 344 -0.7 101160 77
2005-02-23 07:30:39 51°13.57 2°56.1 4.3 337 -0.7 101160 77
2005-02-23 07:30:42 51°13.567 2°56.105 4.7 330 -0.7 101160 77
2005-02-23 07:30:49 51°13.561 2°56.114 3.9 338 -0.7 101160 77
2005-02-23 07:30:54 51°13.557 2°56.12 4.1 338 -0.7 101160 77
2005-02-23 07:30:59 51°13.553 2°56.126 3.3 339 -0.7 101160 77
2005-02-23 07:31:05 51°13.549 2°56.133 3.9 341 -0.7 101160 77
2005-02-23 07:31:09 51°13.546 2°56.139 4 355 -0.7 101160 77
2005-02-23 07:31:14 51°13.542 2°56.146 4.5 9 -0.7 101160 77
2005-02-23 07:31:19 51°13.539 2°56.152 4.9 346 -0.7 101160 77
2005-02-23 07:31:24 51°13.536 2°56.159 4.3 344 -0.7 101160 77
2005-02-23 07:31:29 51°13.534 2°56.165 5.3 348 -0.7 101160 77
2005-02-23 07:31:34 51°13.531 2°56.172 4.9 358 -0.7 101160 77
2005-02-23 07:31:40 51°13.53 2°56.18 5 354 -0.7 101160 77
2005-02-23 07:31:44 51°13.528 2°56.186 3.5 359 -0.7 101160 77
2005-02-23 07:31:49 51°13.528 2°56.193 5.2 358 -0.7 101160 77
2005-02-23 07:31:53 51°13.528 2°56.199 5.6 15 -0.7 101160 77
2005-02-23 07:31:59 51°13.528 2°56.208 5.6 18 -0.7 101160 77
2005-02-23 07:32:04 51°13.53 2°56.217 5.5 23 -0.7 101160 77
2005-02-23 07:32:09 51°13.532 2°56.223 4.5 16 -0.7 101160 77
2005-02-23 07:32:14 51°13.534 2°56.229 4.4 26 -0.7 101160 77
2005-02-23 07:32:19 51°13.536 2°56.234 3 15 -0.7 101160 77
2005-02-23 07:32:24 51°13.538 2°56.237 2.9 7 -0.7 101160 76
2005-02-23 07:32:29 51°13.539 2°56.239 2.7 4 -0.7 101160 76
2005-02-23 07:32:34 51°13.541 2°56.241 2.3 19 -0.7 101160 76
2005-02-23 07:32:39 51°13.542 2°56.241 2 58 -0.7 101160 76
2005-02-23 07:32:44 51°13.542 2°56.241 2.5 74 -0.7 101160 76
2005-02-23 07:32:49 51°13.542 2°56.241 2.2 84 -0.7 101160 77
2005-02-23 07:32:54 51°13.542 2°56.24 1.7 92 -0.7 101160 77
2005-02-23 07:33:00 51°13.541 2°56.238 1.3 90 -0.7 101160 77
2005-02-23 07:33:03 51°13.541 2°56.237 1.8 48 -0.7 101170 77
2005-02-23 07:33:09 51°13.539 2°56.235 1.3 50 -0.7 101170 77
2005-02-23 07:33:14 51°13.538 2°56.234 1.4 66 -0.7 101160 77
2005-02-23 07:33:20 51°13.535 2°56.231 1.8 87 -0.7 101160 77
2005-02-23 07:33:24 51°13.534 2°56.229 2.5 108 -0.7 101160 77
2005-02-23 07:33:30 51°13.532 2°56.227 2.3 111 -0.7 101160 77
2005-02-23 07:33:35 51°13.531 2°56.225 2 106 -0.7 101170 77
2005-02-23 07:33:39 51°13.53 2°56.224 2.6 98 -0.7 101170 77
2005-02-23 07:33:45 51°13.531 2°56.223 3.2 93 -0.7 101170 77
2005-02-23 07:33:50 51°13.532 2°56.223 2.9 101 -0.7 101170 77
2005-02-23 07:33:53 51°13.534 2°56.222 2.9 85 -0.7 101170 77
2005-02-23 07:33:58 51°13.536 2°56.222 3 77 -0.7 101170 77
2005-02-23 07:34:05 51°13.54 2°56.221 2.5 75 -0.7 101170 77
2005-02-23 07:34:09 51°13.542 2°56.221 2.5 85 -0.7 101170 77
2005-02-23 07:34:14 51°13.544 2°56.22 2 109 -0.7 101160 77
2005-02-23 07:34:19 51°13.545 2°56.219 2 109 -0.7 101160 77
2005-02-23 07:34:25 51°13.545 2°56.219 2.2 130 -0.7 101160 77
2005-02-23 07:34:29 51°13.544 2°56.218 2.1 137 -0.7 101160 77
2005-02-23 07:34:33 51°13.543 2°56.219 2.2 132 -0.7 101160 77
2005-02-23 07:34:39 51°13.542 2°56.219 1.6 126 -0.7 101160 77
2005-02-23 07:34:44 51°13.54 2°56.22 2.2 128 -0.7 101160 78
2005-02-23 07:34:50 51°13.537 2°56.222 2.2 132 -0.7 101160 78
2005-02-23 07:34:55 51°13.534 2°56.224 2.2 129 -0.7 101160 78
2005-02-23 07:35:00 51°13.531 2°56.227 3.7 150 -0.7 101160 78
2005-02-23 07:35:05 51°13.529 2°56.229 3.5 149 -0.6 101170 78
2005-02-23 07:35:09 51°13.527 2°56.23 2.8 137 -0.6 101170 78
2005-02-23 07:35:15 51°13.526 2°56.23 2.2 124 -0.6 101160 78
2005-02-23 07:35:19 51°13.525 2°56.23 2.3 132 -0.6 101160 78
2005-02-23 07:35:25 51°13.526 2°56.229 2.3 120 -0.6 101160 78
2005-02-23 07:35:29 51°13.526 2°56.228 2.3 124 -0.6 101170 78
2005-02-23 07:35:34 51°13.527 2°56.226 2.6 132 -0.6 101170 78
2005-02-23 07:35:38 51°13.528 2°56.223 2.3 139 -0.6 101170 78
2005-02-23 07:35:44 51°13.53 2°56.218 2.3 143 -0.7 101160 78
2005-02-23 07:35:49 51°13.533 2°56.212 2 135 -0.7 101160 78
2005-02-23 07:35:54 51°13.536 2°56.204 2.1 135 -0.7 101160 77
2005-02-23 07:35:58 51°13.538 2°56.197 1.5 124 -0.7 101160 77
2005-02-23 07:36:04 51°13.542 2°56.185 1.1 123 -0.7 101170 77
2005-02-23 07:36:09 51°13.546 2°56.174 0.9 112 -0.7 101170 77
2005-02-23 07:36:14 51°13.549 2°56.163 1.6 50 -0.7 101170 77
2005-02-23 07:36:19 51°13.553 2°56.152 1.8 56 -0.7 101170 77
2005-02-23 07:36:23 51°13.556 2°56.143 2.1 55 -0.7 101150 77
2005-02-23 07:36:30 51°13.562 2°56.127 2.2 67 -0.7 101150 77
2005-02-23 07:36:35 51°13.566 2°56.116 1.8 67 -0.7 101150 77
2005-02-23 07:36:39 51°13.57 2°56.106 1.8 56 -0.7 101160 77
2005-02-23 07:36:45 51°13.575 2°56.094 2.3 53 -0.7 101160 77
2005-02-23 07:36:49 51°13.579 2°56.084 1.8 37 -0.7 101160 77
2005-02-23 07:36:54 51°13.583 2°56.073 1.8 44 -0.7 101170 77
2005-02-23 07:36:59 51°13.588 2°56.062 1.8 67 -0.7 101170 77
2005-02-23 07:37:04 51°13.593 2°56.049 1.4 69 -0.7 101160 77
2005-02-23 07:37:09 51°13.598 2°56.037 1.4 53 -0.7 101160 77
2005-02-23 07:37:14 51°13.603 2°56.025 1.9 45 -0.7 101160 77
2005-02-23 07:37:19 51°13.608 2°56.013 2.7 43 -0.7 101160 77
2005-02-23 07:37:25 51°13.614 2°56 2.5 39 -0.7 101160 77
2005-02-23 07:37:29 51°13.619 2°55.989 2.9 68 -0.7 101160 77
2005-02-23 07:37:33 51°13.623 2°55.979 2.7 69 -0.7 101160 77
2005-02-23 07:37:38 51°13.629 2°55.966 2.1 66 -0.7 101160 77
2005-02-23 07:37:45 51°13.636 2°55.95 1.9 67 -0.7 101160 77
2005-02-23 07:37:49 51°13.641 2°55.939 1.7 50 -0.7 101160 77
2005-02-23 07:37:53 51°13.645 2°55.929 2.2 38 -0.7 101160 77
2005-02-23 07:37:59 51°13.651 2°55.915 2.1 55 -0.7 101160 77
2005-02-23 07:38:04 51°13.656 2°55.905 1.8 72 -0.7 101160 77
2005-02-23 07:38:09 51°13.661 2°55.895 1.2 90 -0.7 101160 77
2005-02-23 07:38:14 51°13.666 2°55.883 1.5 101 -0.7 101160 76
2005-02-23 07:38:19 51°13.67 2°55.874 1.3 95 -0.7 101160 76
2005-02-23 07:38:23 51°13.674 2°55.864 1.1 94 -0.7 101170 77
2005-02-23 07:38:29 51°13.68 2°55.852 0.9 36 -0.7 101170 77
2005-02-23 07:38:34 51°13.684 2°55.842 1.7 24 -0.7 101170 76
2005-02-23 07:38:39 51°13.688 2°55.833 1.2 25 -0.7 101170 76
2005-02-23 07:38:44 51°13.694 2°55.822 1.5 28 -0.7 101170 76
2005-02-23 07:38:49 51°13.698 2°55.812 2 27 -0.7 101170 77
2005-02-23 07:38:53 51°13.703 2°55.802 1.9 29 -0.7 101170 77
2005-02-23 07:38:59 51°13.708 2°55.789 2.4 33 -0.7 101170 77
2005-02-23 07:39:05 51°13.715 2°55.774 2.7 52 -0.7 101170 77
2005-02-23 07:39:09 51°13.721 2°55.763 3.6 41 -0.7 101170 77
2005-02-23 07:39:14 51°13.726 2°55.751 2.5 43 -0.8 101170 77
2005-02-23 07:39:19 51°13.733 2°55.739 2.6 50 -0.8 101170 77
2005-02-23 07:39:24 51°13.741 2°55.725 4.1 22 -0.7 101170 77
2005-02-23 07:39:29 51°13.749 2°55.712 3.5 39 -0.7 101170 77
2005-02-23 07:39:34 51°13.757 2°55.7 3.5 43 -0.7 101170 77
2005-02-23 07:39:39 51°13.765 2°55.689 3.8 33 -0.7 101170 77
2005-02-23 07:39:44 51°13.774 2°55.678 4.1 47 -0.7 101170 77
2005-02-23 07:39:49 51°13.785 2°55.667 3.6 31 -0.7 101170 77
2005-02-23 07:39:54 51°13.796 2°55.657 4 20 -0.7 101170 76
2005-02-23 07:39:59 51°13.805 2°55.649 4.7 42 -0.7 101170 76
2005-02-23 07:40:04 51°13.818 2°55.639 4 36 -0.7 101170 76
2005-02-23 07:40:09 51°13.827 2°55.63 5.3 45 -0.7 101170 76
2005-02-23 07:40:15 51°13.841 2°55.62 4.8 32 -0.7 101170 76
2005-02-23 07:40:19 51°13.852 2°55.611 4.8 25 -0.7 101170 76
2005-02-23 07:40:24 51°13.863 2°55.602 4.3 37 -0.7 101170 76
2005-02-23 07:40:29 51°13.874 2°55.594 3.7 33 -0.7 101170 76
2005-02-23 07:40:34 51°13.887 2°55.584 4.5 24 -0.8 101170 76
2005-02-23 07:40:39 51°13.897 2°55.576 4.9 36 -0.8 101170 76
2005-02-23 07:40:44 51°13.91 2°55.566 5.3 41 -0.8 101170 76
2005-02-23 07:40:49 51°13.921 2°55.558 4.6 49 -0.8 101170 76
2005-02-23 07:40:54 51°13.935 2°55.549 4.4 45 -0.8 101170 76
2005-02-23 07:40:59 51°13.945 2°55.541 3.9 53 -0.8 101170 76
2005-02-23 07:41:02 51°13.954 2°55.536 5.3 33 -0.7 101170 76
2005-02-23 07:41:09 51°13.971 2°55.524 5.7 36 -0.7 101170 76
2005-02-23 07:41:13 51°13.981 2°55.518 5.3 44 -0.7 101160 76
2005-02-23 07:41:19 51°13.995 2°55.509 4.7 49 -0.7 101160 76
2005-02-23 07:41:24 51°14.008 2°55.5 4.2 51 -0.7 101170 77
2005-02-23 07:41:29 51°14.019 2°55.493 4.3 40 -0.7 101170 77
2005-02-23 07:41:34 51°14.033 2°55.485 2.6 25 -0.7 101170 77
2005-02-23 07:41:38 51°14.043 2°55.478 4.4 25 -0.7 101170 77
2005-02-23 07:41:44 51°14.058 2°55.469 4.4 26 -0.7 101160 76
2005-02-23 07:41:49 51°14.07 2°55.46 5 35 -0.7 101160 76
2005-02-23 07:41:54 51°14.081 2°55.453 5.3 42 -0.8 101170 76
2005-02-23 07:41:59 51°14.093 2°55.444 5.2 37 -0.8 101170 76
2005-02-23 07:42:04 51°14.106 2°55.435 4.3 32 -0.8 101160 76
2005-02-23 07:42:09 51°14.119 2°55.425 4 43 -0.8 101160 76
2005-02-23 07:42:13 51°14.128 2°55.418 4.4 38 -0.7 101170 76
2005-02-23 07:42:18 51°14.14 2°55.408 4.7 30 -0.7 101170 76
2005-02-23 07:42:24 51°14.154 2°55.396 4.5 33 -0.7 101160 76
2005-02-23 07:42:29 51°14.166 2°55.386 4.4 31 -0.7 101160 76
2005-02-23 07:42:33 51°14.175 2°55.377 4.7 38 -0.8 101160 76
2005-02-23 07:42:40 51°14.19 2°55.36 4.2 52 -0.8 101160 76
2005-02-23 07:42:45 51°14.2 2°55.349 4.4 45 -0.8 101160 76
2005-02-23 07:42:50 51°14.21 2°55.336 4.1 40 -0.8 101160 76
2005-02-23 07:42:54 51°14.22 2°55.324 3.7 39 -0.8 101160 76
2005-02-23 07:42:58 51°14.227 2°55.313 4.2 40 -0.8 101160 76
2005-02-23 07:43:04 51°14.239 2°55.295 3.8 40 -0.8 101160 76
2005-02-23 07:43:09 51°14.249 2°55.28 4 35 -0.8 101160 76
2005-02-23 07:43:14 51°14.257 2°55.265 4.2 32 -0.8 101160 76
2005-02-23 07:43:19 51°14.267 2°55.249 3.8 35 -0.8 101160 76
2005-02-23 07:43:24 51°14.277 2°55.23 4.5 39 -0.8 101160 76
2005-02-23 07:43:29 51°14.286 2°55.212 3.8 41 -0.8 101160 76
2005-02-23 07:43:34 51°14.295 2°55.194 4 24 -0.8 101170 76
2005-02-23 07:43:39 51°14.304 2°55.178 3.3 40 -0.8 101170 76
2005-02-23 07:43:44 51°14.313 2°55.158 3.9 36 -0.8 101160 76
2005-02-23 07:43:49 51°14.322 2°55.14 4 19 -0.8 101160 76
2005-02-23 07:43:53 51°14.328 2°55.125 4.1 28 -0.8 101160 76
2005-02-23 07:43:59 51°14.338 2°55.102 4.3 30 -0.8 101160 76
2005-02-23 07:44:05 51°14.348 2°55.079 3.8 34 -0.8 101160 76
2005-02-23 07:44:09 51°14.356 2°55.061 3.3 43 -0.8 101160 76
2005-02-23 07:44:14 51°14.365 2°55.04 4.1 42 -0.8 101160 77
2005-02-23 07:44:19 51°14.373 2°55.021 3.6 29 -0.8 101160 77
2005-02-23 07:44:24 51°14.382 2°54.997 3.8 36 -0.7 101150 77
2005-02-23 07:44:29 51°14.391 2°54.974 4.6 22 -0.7 101150 77
2005-02-23 07:44:33 51°14.397 2°54.956 3.7 30 -0.7 101160 77
2005-02-23 07:44:39 51°14.405 2°54.93 3.9 16 -0.7 101160 77
2005-02-23 07:44:44 51°14.414 2°54.905 4.3 25 -0.7 101160 77
2005-02-23 07:44:49 51°14.422 2°54.88 4 23 -0.8 101160 77
2005-02-23 07:44:54 51°14.43 2°54.86 4.5 40 -0.8 101150 77
2005-02-23 07:44:59 51°14.439 2°54.835 4.3 27 -0.8 101150 77
2005-02-23 07:45:05 51°14.449 2°54.807 4.6 38 -0.8 101150 77
2005-02-23 07:45:09 51°14.456 2°54.782 4.4 35 -0.8 101160 77
2005-02-23 07:45:15 51°14.464 2°54.753 5.3 35 -0.7 101160 77
2005-02-23 07:45:19 51°14.471 2°54.728 3.8 34 -0.7 101160 77
2005-02-23 07:45:24 51°14.477 2°54.704 4.1 31 -0.7 101140 77
2005-02-23 07:45:29 51°14.486 2°54.674 3.8 35 -0.7 101140 77
2005-02-23 07:45:33 51°14.492 2°54.651 4 29 -0.7 101150 77
2005-02-23 07:45:38 51°14.5 2°54.623 4.5 30 -0.7 101150 77
2005-02-23 07:45:43 51°14.508 2°54.595 4.8 41 -0.7 101140 76
2005-02-23 07:45:49 51°14.517 2°54.562 4.3 31 -0.7 101140 76
2005-02-23 07:45:54 51°14.525 2°54.536 4.2 31 -0.7 101140 76
2005-02-23 07:45:59 51°14.532 2°54.508 4.2 31 -0.7 101140 76
2005-02-23 07:46:04 51°14.54 2°54.476 4 26 -0.7 101140 77
2005-02-23 07:46:08 51°14.546 2°54.453 3.9 27 -0.7 101140 77
2005-02-23 07:46:14 51°14.554 2°54.418 3.5 28 -0.7 101150 76
2005-02-23 07:46:19 51°14.561 2°54.388 4.2 26 -0.7 101150 76
2005-02-23 07:46:24 51°14.569 2°54.361 3.9 30 -0.7 101150 76
2005-02-23 07:46:29 51°14.578 2°54.333 5 26 -0.7 101150 76
2005-02-23 07:46:35 51°14.589 2°54.305 4.8 39 -0.7 101150 76
2005-02-23 07:46:39 51°14.598 2°54.284 4 39 -0.7 101150 76
2005-02-23 07:46:44 51°14.61 2°54.256 4.9 30 -0.7 101150 76
2005-02-23 07:46:49 51°14.621 2°54.231 4.8 34 -0.7 101140 76
2005-02-23 07:46:54 51°14.631 2°54.209 4.8 33 -0.7 101150 76
2005-02-23 07:46:58 51°14.642 2°54.188 4.6 26 -0.7 101150 76
2005-02-23 07:47:04 51°14.656 2°54.159 2.6 33 -0.7 101150 76
2005-02-23 07:47:09 51°14.669 2°54.136 4.7 40 -0.7 101150 76
2005-02-23 07:47:14 51°14.68 2°54.116 5.2 40 -0.7 101140 76
2005-02-23 07:47:19 51°14.693 2°54.093 5 38 -0.7 101140 76
2005-02-23 07:47:24 51°14.707 2°54.069 5.7 44 -0.7 101150 76
2005-02-23 07:47:29 51°14.72 2°54.048 5.4 46 -0.7 101150 76
2005-02-23 07:47:34 51°14.733 2°54.026 5.2 45 -0.7 101150 76
2005-02-23 07:47:39 51°14.745 2°54.006 5.7 42 -0.7 101150 76
2005-02-23 07:47:43 51°14.755 2°53.989 5.2 50 -0.7 101150 76
2005-02-23 07:47:49 51°14.772 2°53.961 4.7 44 -0.7 101150 76
2005-02-23 07:47:54 51°14.784 2°53.939 5.4 51 -0.7 101150 75
2005-02-23 07:47:59 51°14.797 2°53.917 5 57 -0.7 101150 75
2005-02-23 07:48:04 51°14.809 2°53.896 4.9 53 -0.7 101150 75
2005-02-23 07:48:09 51°14.822 2°53.874 5.7 45 -0.7 101150 75
2005-02-23 07:48:13 51°14.831 2°53.857 4.6 58 -0.7 101150 75
2005-02-23 07:48:19 51°14.845 2°53.832 5 55 -0.7 101150 75
2005-02-23 07:48:24 51°14.858 2°53.808 5.3 49 -0.7 101150 75
2005-02-23 07:48:30 51°14.871 2°53.783 4.3 60 -0.7 101150 75
2005-02-23 07:48:34 51°14.883 2°53.763 4.1 57 -0.7 101150 75
2005-02-23 07:48:39 51°14.894 2°53.743 4.5 63 -0.6 101150 75
2005-02-23 07:48:44 51°14.906 2°53.721 3.8 58 -0.6 101150 75
2005-02-23 07:48:49 51°14.92 2°53.697 5.8 51 -0.6 101150 75
2005-02-23 07:48:54 51°14.933 2°53.675 6.2 51 -0.6 101150 75
2005-02-23 07:48:58 51°14.943 2°53.659 6.6 52 -0.6 101150 75
2005-02-23 07:49:04 51°14.959 2°53.635 7 56 -0.6 101150 75
2005-02-23 07:49:10 51°14.975 2°53.615 6.1 59 -0.6 101150 75
2005-02-23 07:49:13 51°14.985 2°53.602 6.6 63 -0.6 101140 75
2005-02-23 07:49:19 51°15 2°53.583 7.6 49 -0.6 101140 75
2005-02-23 07:49:23 51°15.014 2°53.567 7.2 52 -0.6 101140 75
2005-02-23 07:49:29 51°15.032 2°53.546 6.5 52 -0.6 101140 75
2005-02-23 07:49:34 51°15.046 2°53.528 6.9 52 -0.6 101160 74
2005-02-23 07:49:39 51°15.061 2°53.511 7.6 48 -0.6 101160 74
2005-02-23 07:49:44 51°15.075 2°53.493 7.3 53 -0.6 101140 73
2005-02-23 07:49:49 51°15.089 2°53.475 7.1 55 -0.6 101140 73
2005-02-23 07:49:54 51°15.103 2°53.457 6.8 56 -0.6 101140 73
2005-02-23 07:49:59 51°15.118 2°53.438 7.8 57 -0.6 101140 73
2005-02-23 07:50:04 51°15.132 2°53.421 8.1 55 -0.6 101130 72
2005-02-23 07:50:09 51°15.147 2°53.405 8 57 -0.6 101130 72
2005-02-23 07:50:13 51°15.159 2°53.393 8.5 50 -0.6 101140 72
2005-02-23 07:50:19 51°15.177 2°53.379 8.1 -999 -0.6 101140 72
2005-02-23 07:50:24 51°15.194 2°53.364 8.6 52 -0.6 101140 72
2005-02-23 07:50:29 51°15.211 2°53.352 7.6 57 -0.6 101140 72
2005-02-23 07:50:33 51°15.224 2°53.342 7.5 58 -0.5 101130 72
2005-02-23 07:50:38 51°15.24 2°53.33 8.5 54 -0.5 101130 72
2005-02-23 07:50:44 51°15.259 2°53.316 8 49 -0.5 101130 72
2005-02-23 07:50:49 51°15.276 2°53.304 7.6 53 -0.5 101130 72
2005-02-23 07:50:54 51°15.292 2°53.293 7.7 54 -0.5 101130 72
2005-02-23 07:50:59 51°15.309 2°53.282 7.2 58 -0.5 101130 72
2005-02-23 07:51:04 51°15.326 2°53.271 7.4 52 -0.5 101140 72
2005-02-23 07:51:09 51°15.342 2°53.261 8.4 52 -0.5 101140 72
2005-02-23 07:51:14 51°15.359 2°53.251 8.9 50 -0.5 101130 71
2005-02-23 07:51:18 51°15.372 2°53.243 8.3 -999 -0.5 101130 71
2005-02-23 07:51:24 51°15.393 2°53.231 8.3 43 -0.5 101130 71
2005-02-23 07:51:29 51°15.41 2°53.221 8.6 50 -0.5 101140 71
2005-02-23 07:51:34 51°15.426 2°53.212 8.9 48 -0.5 101130 72
2005-02-23 07:51:39 51°15.443 2°53.202 8.1 57 -0.5 101130 72
2005-02-23 07:51:45 51°15.463 2°53.19 8.2 57 -0.5 101130 72
2005-02-23 07:51:49 51°15.478 2°53.181 7.8 52 -0.5 101140 72
2005-02-23 07:51:54 51°15.495 2°53.171 8 53 -0.5 101130 72
2005-02-23 07:51:59 51°15.512 2°53.16 7.2 58 -0.5 101130 72
2005-02-23 07:52:04 51°15.528 2°53.149 6.8 58 -0.5 101130 72
2005-02-23 07:52:10 51°15.547 2°53.136 7.8 50 -0.5 101130 72
2005-02-23 07:52:15 51°15.563 2°53.125 7.7 48 -0.5 101130 72
2005-02-23 07:52:20 51°15.58 2°53.115 7.2 54 -0.5 101130 72
2005-02-23 07:52:24 51°15.594 2°53.106 7.6 51 -0.5 101130 72
2005-02-23 07:52:29 51°15.613 2°53.094 7.7 56 -0.5 101130 72
2005-02-23 07:52:34 51°15.63 2°53.083 8.2 50 -0.5 101130 72
2005-02-23 07:52:39 51°15.645 2°53.073 8.1 55 -0.5 101140 72
2005-02-23 07:52:43 51°15.658 2°53.065 8.3 55 -0.4 101140 73
2005-02-23 07:52:49 51°15.68 2°53.05 7.8 57 -0.4 101140 73
2005-02-23 07:52:54 51°15.696 2°53.039 7.8 56 -0.4 101140 73
2005-02-23 07:52:59 51°15.711 2°53.029 7.8 56 -0.4 101140 73
2005-02-23 07:53:05 51°15.731 2°53.015 8 52 -0.4 101130 73
2005-02-23 07:53:10 51°15.747 2°53.004 6.6 57 -0.4 101130 73
2005-02-23 07:53:13 51°15.759 2°52.996 6.8 59 -0.4 101130 72
2005-02-23 07:53:19 51°15.779 2°52.983 6.9 57 -0.4 101130 72
2005-02-23 07:53:25 51°15.797 2°52.97 8.1 53 -0.4 101140 72
2005-02-23 07:53:30 51°15.814 2°52.959 7.8 57 -0.4 101140 72
2005-02-23 07:53:35 51°15.831 2°52.949 8.1 51 -0.4 101140 72
2005-02-23 07:53:39 51°15.844 2°52.941 7.7 53 -0.4 101140 72
2005-02-23 07:53:43 51°15.857 2°52.933 9.3 49 -0.4 101140 73
2005-02-23 07:53:49 51°15.879 2°52.919 8.5 48 -0.4 101140 73
2005-02-23 07:53:55 51°15.897 2°52.908 7.9 53 -0.4 101130 73
2005-02-23 07:53:59 51°15.913 2°52.899 9.3 46 -0.4 101130 73
2005-02-23 07:54:04 51°15.929 2°52.889 7.6 51 -0.3 101140 73
2005-02-23 07:54:09 51°15.946 2°52.88 9.2 51 -0.3 101140 73
2005-02-23 07:54:14 51°15.961 2°52.872 8.3 50 -0.3 101140 72
2005-02-23 07:54:19 51°15.979 2°52.862 8.5 -999 -0.3 101140 72
2005-02-23 07:54:23 51°15.992 2°52.855 8.6 48 -0.3 101140 72
2005-02-23 07:54:29 51°16.011 2°52.844 8.2 48 -0.3 101140 72
2005-02-23 07:54:34 51°16.028 2°52.834 7.7 52 -0.3 101130 73
2005-02-23 07:54:39 51°16.046 2°52.824 7.5 54 -0.3 101130 73
2005-02-23 07:54:45 51°16.066 2°52.813 7.5 52 -0.3 101130 73
2005-02-23 07:54:49 51°16.08 2°52.805 7.5 51 -0.3 101130 73
2005-02-23 07:54:54 51°16.096 2°52.796 7.8 54 -0.3 101130 72
2005-02-23 07:55:00 51°16.115 2°52.785 6.7 55 -0.3 101130 72
2005-02-23 07:55:05 51°16.131 2°52.775 7 55 -0.3 101130 72
2005-02-23 07:55:09 51°16.146 2°52.765 6.8 52 -0.3 101130 72
2005-02-23 07:55:14 51°16.161 2°52.757 7.3 57 -0.3 101120 72
2005-02-23 07:55:18 51°16.176 2°52.748 7.2 -999 -0.3 101120 72
2005-02-23 07:55:25 51°16.198 2°52.736 7.3 58 -0.3 101130 71
2005-02-23 07:55:29 51°16.214 2°52.727 7.8 60 -0.3 101130 71
2005-02-23 07:55:34 51°16.23 2°52.718 8.6 54 -0.3 101130 72
2005-02-23 07:55:39 51°16.245 2°52.71 8.6 55 -0.3 101130 72
2005-02-23 07:55:44 51°16.264 2°52.7 8.2 58 -0.3 101130 73
2005-02-23 07:55:49 51°16.281 2°52.69 8.6 54 -0.3 101130 73
2005-02-23 07:55:53 51°16.294 2°52.682 8.8 57 -0.3 101130 72
2005-02-23 07:56:00 51°16.316 2°52.67 8.6 59 -0.3 101130 72
2005-02-23 07:56:04 51°16.331 2°52.662 8.6 59 -0.3 101130 72
2005-02-23 07:56:10 51°16.35 2°52.65 8.6 59 -0.2 101130 72
2005-02-23 07:56:14 51°16.364 2°52.641 8.8 56 -0.2 101130 73
2005-02-23 07:56:19 51°16.38 2°52.632 8.6 -999 -0.2 101130 73
2005-02-23 07:56:24 51°16.396 2°52.624 8.8 54 -0.2 101130 73
2005-02-23 07:56:29 51°16.415 2°52.613 8.1 65 -0.2 101130 73
2005-02-23 07:56:34 51°16.43 2°52.605 7.7 55 -0.2 101120 72
2005-02-23 07:56:40 51°16.45 2°52.594 8.3 54 -0.2 101120 72
2005-02-23 07:56:44 51°16.463 2°52.586 7.5 62 -0.2 101130 73
2005-02-23 07:56:49 51°16.481 2°52.576 9.3 48 -0.2 101130 73
2005-02-23 07:56:53 51°16.495 2°52.569 9.3 53 -0.2 101120 72
2005-02-23 07:56:59 51°16.512 2°52.558 8.4 56 -0.2 101120 72
2005-02-23 07:57:05 51°16.533 2°52.546 9 51 -0.2 101130 72
2005-02-23 07:57:10 51°16.549 2°52.537 8.8 54 -0.2 101130 72
2005-02-23 07:57:14 51°16.563 2°52.531 8.8 53 -0.2 101120 72
2005-02-23 07:57:19 51°16.579 2°52.523 9.5 -999 -0.2 101120 72
2005-02-23 07:57:24 51°16.595 2°52.516 8.9 52 -0.2 101130 72
2005-02-23 07:57:29 51°16.612 2°52.51 8.7 50 -0.2 101130 72
2005-02-23 07:57:35 51°16.63 2°52.504 8.8 48 -0.2 101130 72
2005-02-23 07:57:38 51°16.641 2°52.5 9.9 40 -0.2 101120 72
2005-02-23 07:57:45 51°16.663 2°52.493 13 43 -0.2 101140 72
2005-02-23 07:57:49 51°16.678 2°52.487 11.9 64 -0.2 101140 72
2005-02-23 07:57:54 51°16.694 2°52.482 10 62 -0.2 101140 72
2005-02-23 07:57:59 51°16.709 2°52.477 12.2 52 -0.2 101130 73
2005-02-23 07:58:04 51°16.728 2°52.471 11.2 54 -0.2 101130 73
2005-02-23 07:58:09 51°16.742 2°52.467 11.8 46 -0.1 101130 72
2005-02-23 07:58:14 51°16.76 2°52.46 11.4 50 -0.1 101130 72
2005-02-23 07:58:19 51°16.775 2°52.456 11.8 49 -0.1 101100 73
2005-02-23 07:58:25 51°16.795 2°52.449 11.5 51 -0.1 101100 73
2005-02-23 07:58:29 51°16.81 2°52.445 10.4 52 -0.1 101110 72
2005-02-23 07:58:35 51°16.828 2°52.439 10.3 53 -0.1 101110 72
2005-02-23 07:58:39 51°16.842 2°52.435 10.3 49 -0.1 101120 70
2005-02-23 07:58:44 51°16.861 2°52.429 10.8 50 -0.1 101120 70
2005-02-23 07:58:50 51°16.878 2°52.423 8.3 60 -0.1 101110 68
2005-02-23 07:58:53 51°16.89 2°52.419 8.5 53 -0.1 101110 68
2005-02-23 07:58:59 51°16.908 2°52.414 10 50 -0.1 101120 67
2005-02-23 07:59:05 51°16.928 2°52.407 9.3 49 -0.1 101120 67
2005-02-23 07:59:09 51°16.943 2°52.403 11.2 51 -0.1 101120 67
2005-02-23 07:59:14 51°16.958 2°52.398 12.2 49 -0.1 101120 67
2005-02-23 07:59:19 51°16.974 2°52.392 11.9 53 -0.1 101120 67
2005-02-23 07:59:25 51°16.993 2°52.386 11.2 58 -0.1 101120 67
2005-02-23 07:59:29 51°17.005 2°52.381 13.3 47 -0.1 101130 67
2005-02-23 07:59:34 51°17.024 2°52.375 12.6 51 -0.1 101130 67
2005-02-23 07:59:39 51°17.039 2°52.369 11.5 53 -0.1 101120 68
2005-02-23 07:59:45 51°17.058 2°52.363 10.5 53 -0.1 101120 68
2005-02-23 07:59:49 51°17.073 2°52.358 11.8 53 -999 101120 68
2005-02-23 07:59:54 51°17.089 2°52.352 11.4 55 -999 101120 68
2005-02-23 07:59:59 51°17.104 2°52.346 9.7 54 -999 101110 68
2005-02-23 08:00:05 51°17.123 2°52.339 10 56 -999 101110 68
2005-02-23 08:00:09 51°17.139 2°52.334 10.7 55 -999 101120 67
2005-02-23 08:00:14 51°17.156 2°52.328 10.7 48 -999 101120 67
2005-02-23 08:00:19 51°17.171 2°52.323 9 62 -999 101110 67
2005-02-23 08:00:24 51°17.188 2°52.317 9.5 57 -999 101110 67
2005-02-23 08:00:29 51°17.205 2°52.311 10.2 57 -999 101120 66
2005-02-23 08:00:35 51°17.223 2°52.305 9.6 54 -999 101120 66
2005-02-23 08:00:39 51°17.236 2°52.3 12.1 49 -999 101120 66
2005-02-23 08:00:45 51°17.257 2°52.292 12.3 53 -999 101120 66
2005-02-23 08:00:49 51°17.27 2°52.287 10.5 54 -999 101110 65
2005-02-23 08:00:54 51°17.288 2°52.279 11.2 52 -999 101110 65
2005-02-23 08:00:59 51°17.303 2°52.274 9.6 54 -999 101120 65
2005-02-23 08:01:04 51°17.321 2°52.268 9.3 53 -999 101120 65
2005-02-23 08:01:09 51°17.338 2°52.262 10.5 54 -999 101120 66
2005-02-23 08:01:14 51°17.355 2°52.255 10 52 -999 101120 67
2005-02-23 08:01:19 51°17.369 2°52.25 10.5 51 -999 101120 67
2005-02-23 08:01:24 51°17.388 2°52.243 9.2 49 -999 101120 67
2005-02-23 08:01:29 51°17.405 2°52.237 9.8 50 -999 101120 66
2005-02-23 08:01:34 51°17.42 2°52.231 9.3 50 -999 101120 66
2005-02-23 08:01:39 51°17.437 2°52.224 9.1 59 -999 101130 66
2005-02-23 08:01:44 51°17.455 2°52.218 8.5 58 -999 101130 66
2005-02-23 08:01:49 51°17.471 2°52.212 8.7 54 -999 101130 66
2005-02-23 08:01:54 51°17.488 2°52.205 9.7 47 -999 101130 66
2005-02-23 08:01:59 51°17.503 2°52.2 9.1 47 -999 101130 66
2005-02-23 08:02:05 51°17.523 2°52.193 9 50 -999 101130 66
2005-02-23 08:02:09 51°17.539 2°52.187 8.5 50 -999 101130 66
2005-02-23 08:02:13 51°17.552 2°52.184 10.3 47 -999 101130 66
2005-02-23 08:02:19 51°17.573 2°52.183 10.3 41 -999 101120 67
2005-02-23 08:02:25 51°17.591 2°52.184 11.1 50 -999 101120 67
2005-02-23 08:02:29 51°17.606 2°52.185 10.9 49 -999 101120 67
2005-02-23 08:02:35 51°17.624 2°52.189 11.3 49 -999 101120 67
2005-02-23 08:02:39 51°17.639 2°52.191 12.1 38 -999 101130 67
2005-02-23 08:02:44 51°17.655 2°52.195 12.1 39 -999 101130 67
2005-02-23 08:02:49 51°17.671 2°52.2 10.8 37 -999 101130 67
2005-02-23 08:02:55 51°17.69 2°52.205 11.6 42 -999 101130 67
2005-02-23 08:02:59 51°17.704 2°52.209 11.8 34 -999 101120 67
2005-02-23 08:03:05 51°17.723 2°52.214 12.3 34 -999 101120 67
2005-02-23 08:03:09 51°17.736 2°52.217 11.2 34 0.1 101130 69
2005-02-23 08:03:14 51°17.753 2°52.221 11.2 39 -999 101120 67
2005-02-23 08:03:19 51°17.77 2°52.225 11.8 39 -999 101120 67
2005-02-23 08:03:24 51°17.786 2°52.229 11 42 -999 101120 67
2005-02-23 08:03:29 51°17.802 2°52.233 11 33 0.1 101130 68
2005-02-23 08:03:34 51°17.817 2°52.24 12.4 29 0.1 101130 68
2005-02-23 08:03:38 51°17.831 2°52.247 13 29 -999 101120 68
2005-02-23 08:03:44 51°17.849 2°52.259 13.3 25 -999 101120 68
2005-02-23 08:03:49 51°17.863 2°52.269 11.2 40 -999 101120 67
2005-02-23 08:03:54 51°17.878 2°52.28 13.2 33 -999 101120 67
2005-02-23 08:03:59 51°17.892 2°52.292 12.2 38 0.1 101120 68
2005-02-23 08:04:05 51°17.908 2°52.305 13.4 33 0.1 101120 68
2005-02-23 08:04:09 51°17.921 2°52.315 14 32 0.1 101120 68
2005-02-23 08:04:14 51°17.935 2°52.326 13.5 34 0.1 101120 68
2005-02-23 08:04:19 51°17.948 2°52.336 12.7 31 0.1 101120 68
2005-02-23 08:04:24 51°17.964 2°52.348 12.9 37 0.1 101110 69
2005-02-23 08:04:29 51°17.978 2°52.359 12.1 31 0.1 101110 69
2005-02-23 08:04:34 51°17.993 2°52.371 13.9 29 0.1 101110 69
2005-02-23 08:04:39 51°18.006 2°52.381 12.4 33 0.1 101120 70
2005-02-23 08:04:44 51°18.021 2°52.394 12.5 31 0.1 101120 70
2005-02-23 08:04:50 51°18.037 2°52.406 13.4 33 0.1 101110 70
2005-02-23 08:04:55 51°18.052 2°52.417 12.9 33 0.1 101110 70
2005-02-23 08:04:59 51°18.064 2°52.426 12.7 27 0.2 101120 70
2005-02-23 08:05:04 51°18.079 2°52.439 12.1 30 0.2 101120 70
2005-02-23 08:05:09 51°18.092 2°52.453 12.5 25 0.1 101110 69
2005-02-23 08:05:13 51°18.103 2°52.466 12.8 22 0.1 101110 69
2005-02-23 08:05:19 51°18.117 2°52.483 11.6 24 0.1 101120 68
2005-02-23 08:05:24 51°18.131 2°52.5 13.3 26 0.1 101120 68
2005-02-23 08:05:29 51°18.144 2°52.517 13.7 24 0.1 101120 68
2005-02-23 08:05:33 51°18.153 2°52.531 13.6 21 0.1 101130 68
2005-02-23 08:05:39 51°18.167 2°52.55 13.3 22 0.1 101130 68
2005-02-23 08:05:44 51°18.18 2°52.569 14.3 19 0.1 101130 68
2005-02-23 08:05:49 51°18.192 2°52.587 13.6 26 0.1 101120 68
2005-02-23 08:05:54 51°18.204 2°52.603 13.3 23 0.1 101120 68
2005-02-23 08:05:59 51°18.215 2°52.619 14.5 28 0.1 101130 67
2005-02-23 08:06:04 51°18.229 2°52.638 13.2 30 0.1 101130 67
2005-02-23 08:06:09 51°18.241 2°52.655 12.7 29 0.1 101130 67
2005-02-23 08:06:14 51°18.254 2°52.671 11.6 24 0.1 101130 67
2005-02-23 08:06:19 51°18.265 2°52.687 13.2 28 0.1 101130 68
2005-02-23 08:06:24 51°18.279 2°52.706 13.9 29 0.2 101130 69
2005-02-23 08:06:29 51°18.291 2°52.723 12.6 30 0.2 101130 69
2005-02-23 08:06:34 51°18.304 2°52.74 13.6 32 0.2 101130 69
2005-02-23 08:06:39 51°18.315 2°52.755 13.8 27 0.2 101120 68
2005-02-23 08:06:44 51°18.329 2°52.773 13.6 24 0.2 101120 68
2005-02-23 08:06:49 51°18.341 2°52.79 13.2 22 0.1 101120 68
2005-02-23 08:06:55 51°18.355 2°52.809 13.6 25 0.1 101120 68
2005-02-23 08:06:59 51°18.366 2°52.824 13.8 36 0.1 101120 67
2005-02-23 08:07:05 51°18.379 2°52.842 12.8 30 0.1 101120 67
2005-02-23 08:07:10 51°18.392 2°52.859 13.6 32 0.1 101120 67
2005-02-23 08:07:14 51°18.402 2°52.873 13.9 33 0.1 101120 67
2005-02-23 08:07:19 51°18.415 2°52.89 12.3 33 0.2 101130 68
2005-02-23 08:07:24 51°18.429 2°52.909 11.4 33 0.2 101130 68
2005-02-23 08:07:29 51°18.441 2°52.926 12 24 0.2 101120 68
2005-02-23 08:07:35 51°18.454 2°52.945 13.3 28 0.2 101120 68
2005-02-23 08:07:39 51°18.463 2°52.961 13 27 0.2 101120 67
2005-02-23 08:07:44 51°18.475 2°52.983 13.2 24 0.2 101120 67
2005-02-23 08:07:49 51°18.485 2°53.004 13.5 20 0.1 101110 66
2005-02-23 08:07:54 51°18.495 2°53.025 14.5 21 0.1 101110 66
2005-02-23 08:07:59 51°18.504 2°53.044 14.2 22 0.1 101120 66
2005-02-23 08:08:04 51°18.514 2°53.069 12.7 19 0.1 101120 66
2005-02-23 08:08:09 51°18.523 2°53.09 14.6 24 0.1 101120 66
2005-02-23 08:08:14 51°18.533 2°53.112 13.4 19 0.1 101120 66
2005-02-23 08:08:19 51°18.541 2°53.133 14.1 22 0.1 101120 67
2005-02-23 08:08:25 51°18.553 2°53.159 14.1 23 0.1 101120 67
2005-02-23 08:08:29 51°18.562 2°53.178 12.9 25 0.2 101150 68
2005-02-23 08:08:34 51°18.571 2°53.2 13.4 17 0.2 101150 68
2005-02-23 08:08:38 51°18.579 2°53.218 13.2 19 0.2 101140 69
2005-02-23 08:08:45 51°18.591 2°53.245 12.6 22 0.2 101140 69
2005-02-23 08:08:49 51°18.6 2°53.265 13.3 23 0.2 101110 68
2005-02-23 08:08:54 51°18.609 2°53.288 12.2 15 0.2 101110 68
2005-02-23 08:08:59 51°18.616 2°53.311 13.9 18 0.1 101130 67
2005-02-23 08:09:05 51°18.624 2°53.341 14.1 19 0.2 101110 68
2005-02-23 08:09:09 51°18.629 2°53.362 13.3 16 0.2 101110 68
2005-02-23 08:09:14 51°18.635 2°53.387 14.4 14 0.2 101110 68
2005-02-23 08:09:19 51°18.641 2°53.412 14.1 21 0.2 101150 68
2005-02-23 08:09:23 51°18.645 2°53.433 13.9 19 0.2 101130 69
2005-02-23 08:09:29 51°18.651 2°53.465 13.3 13 0.2 101130 69
2005-02-23 08:09:34 51°18.656 2°53.49 13.2 20 0.2 101130 69
2005-02-23 08:09:39 51°18.661 2°53.515 13.1 15 0.2 101130 69
2005-02-23 08:09:44 51°18.667 2°53.54 12.3 19 0.2 101130 69
2005-02-23 08:09:49 51°18.672 2°53.566 13.4 7 0.2 101120 69
2005-02-23 08:09:54 51°18.676 2°53.589 12.9 16 0.2 101130 68
2005-02-23 08:09:59 51°18.682 2°53.616 13.2 15 0.2 101130 68
2005-02-23 08:10:03 51°18.686 2°53.637 13.3 10 0.2 101130 68
2005-02-23 08:10:09 51°18.693 2°53.669 13.8 9 0.2 101140 69
2005-02-23 08:10:14 51°18.698 2°53.692 13.7 11 0.2 101140 69
2005-02-23 08:10:18 51°18.702 2°53.713 12.6 7 0.2 101140 69
2005-02-23 08:10:24 51°18.708 2°53.744 13.7 14 0.2 101140 69
2005-02-23 08:10:29 51°18.713 2°53.765 13.6 15 0.2 101140 68
2005-02-23 08:10:34 51°18.718 2°53.793 14.6 12 0.2 101140 68
2005-02-23 08:10:40 51°18.724 2°53.821 15.2 19 0.2 101140 68
2005-02-23 08:10:44 51°18.729 2°53.843 14.6 13 0.2 101140 68
2005-02-23 08:10:49 51°18.734 2°53.867 14.2 8 0.2 101140 69
2005-02-23 08:10:55 51°18.74 2°53.896 14.9 12 0.2 101140 69
2005-02-23 08:11:00 51°18.745 2°53.921 14.4 15 0.2 101150 69
2005-02-23 08:11:04 51°18.75 2°53.943 14.3 11 0.2 101130 68
2005-02-23 08:11:08 51°18.755 2°53.962 14.3 8 0.2 101130 68
2005-02-23 08:11:15 51°18.762 2°53.997 14.3 11 0.2 101130 68
2005-02-23 08:11:18 51°18.767 2°54.014 14.1 11 0.2 101130 68
2005-02-23 08:11:24 51°18.772 2°54.044 13.7 7 0.2 101130 68
2005-02-23 08:11:29 51°18.777 2°54.067 13.2 9 0.2 101140 68
2005-02-23 08:11:35 51°18.783 2°54.096 13.4 8 0.2 101140 68
2005-02-23 08:11:40 51°18.789 2°54.119 13.4 11 0.2 101140 66
2005-02-23 08:11:44 51°18.794 2°54.141 12.5 8 0.2 101140 66
2005-02-23 08:11:49 51°18.799 2°54.168 14.6 14 0.2 101140 65
2005-02-23 08:11:55 51°18.805 2°54.195 14.2 11 0.2 101140 65
2005-02-23 08:11:59 51°18.81 2°54.218 13.4 12 0.2 101140 65
2005-02-23 08:12:04 51°18.816 2°54.243 14 11 0.2 101140 65
2005-02-23 08:12:10 51°18.822 2°54.27 12.8 8 0.2 101140 65
2005-02-23 08:12:14 51°18.826 2°54.291 12.8 11 0.2 101140 65
2005-02-23 08:12:20 51°18.832 2°54.317 13.1 13 0.2 101150 65
2005-02-23 08:12:24 51°18.838 2°54.34 14.4 11 0.2 101150 65
2005-02-23 08:12:29 51°18.843 2°54.366 14.3 8 0.2 101130 66
2005-02-23 08:12:34 51°18.849 2°54.39 13.2 11 0.2 101130 66
2005-02-23 08:12:39 51°18.855 2°54.415 12.5 9 0.2 101130 66
2005-02-23 08:12:44 51°18.859 2°54.439 13.6 16 0.2 101150 66
2005-02-23 08:12:49 51°18.865 2°54.466 13.7 13 0.2 101150 66
2005-02-23 08:12:54 51°18.87 2°54.49 14.2 16 0.2 101150 66
2005-02-23 08:12:59 51°18.877 2°54.515 13 13 0.2 101140 66
2005-02-23 08:13:04 51°18.882 2°54.54 13.6 17 0.2 101140 67
2005-02-23 08:13:09 51°18.888 2°54.562 13.8 14 0.2 101140 67
2005-02-23 08:13:14 51°18.893 2°54.589 14.5 15 0.2 101140 67
2005-02-23 08:13:18 51°18.898 2°54.608 13.8 16 0.2 101140 68
2005-02-23 08:13:24 51°18.905 2°54.638 13.8 12 0.3 101150 69
2005-02-23 08:13:29 51°18.91 2°54.663 13.2 11 0.3 101150 69
2005-02-23 08:13:34 51°18.916 2°54.685 14 12 0.3 101150 69
2005-02-23 08:13:39 51°18.922 2°54.712 13.2 12 0.3 101140 68
2005-02-23 08:13:44 51°18.928 2°54.736 13.8 14 0.2 101150 67
2005-02-23 08:13:48 51°18.933 2°54.756 13.5 10 0.2 101150 67
2005-02-23 08:13:54 51°18.94 2°54.785 14.2 9 0.2 101150 67
2005-02-23 08:13:58 51°18.945 2°54.805 13.2 9 0.2 101140 67
2005-02-23 08:14:04 51°18.951 2°54.834 12.3 10 0.2 101140 67
2005-02-23 08:14:10 51°18.958 2°54.861 13.2 9 0.2 101140 67
2005-02-23 08:14:15 51°18.962 2°54.885 14.2 10 0.2 101140 67
2005-02-23 08:14:18 51°18.967 2°54.904 13.7 16 0.2 101140 67
2005-02-23 08:14:24 51°18.973 2°54.934 14.6 5 0.2 101140 67
2005-02-23 08:14:29 51°18.978 2°54.957 14.4 15 0.2 101150 67
2005-02-23 08:14:34 51°18.984 2°54.984 14.6 16 0.2 101150 67
2005-02-23 08:14:39 51°18.99 2°55.009 14.8 14 0.2 101160 67
2005-02-23 08:14:44 51°18.996 2°55.034 15.8 11 0.2 101160 67
2005-02-23 08:14:49 51°19.001 2°55.058 14.6 4 0.2 101150 67
2005-02-23 08:14:54 51°19.007 2°55.083 15 16 0.2 101130 68
2005-02-23 08:14:59 51°19.012 2°55.106 14.2 14 0.2 101130 68
2005-02-23 08:15:05 51°19.019 2°55.134 13.6 15 0.2 101130 68
2005-02-23 08:15:09 51°19.024 2°55.153 14.5 7 0.3 101140 69
2005-02-23 08:15:14 51°19.03 2°55.183 14.3 9 0.3 101140 69
2005-02-23 08:15:19 51°19.034 2°55.203 14.5 5 0.3 101130 69
2005-02-23 08:15:25 51°19.041 2°55.233 14 17 0.3 101130 69
2005-02-23 08:15:29 51°19.047 2°55.255 12.9 14 0.3 101140 69
2005-02-23 08:15:33 51°19.051 2°55.275 13.5 11 0.3 101140 69
2005-02-23 08:15:39 51°19.058 2°55.306 13.6 11 0.3 101140 69
2005-02-23 08:15:43 51°19.062 2°55.323 15 6 0.3 101140 69
2005-02-23 08:15:49 51°19.07 2°55.356 14.7 6 0.3 101130 68
2005-02-23 08:15:55 51°19.079 2°55.379 15.2 10 0.3 101130 68
2005-02-23 08:15:59 51°19.08 2°55.405 14.5 11 0.2 101150 68
2005-02-23 08:16:05 51°19.088 2°55.434 14 12 0.2 101150 68
2005-02-23 08:16:09 51°19.093 2°55.456 15.9 10 0.2 101140 68
2005-02-23 08:16:14 51°19.099 2°55.479 15.2 10 0.2 101140 68
2005-02-23 08:16:18 51°19.104 2°55.5 13.5 13 0.2 101140 68
2005-02-23 08:16:24 51°19.112 2°55.53 15.8 13 0.2 101140 68
2005-02-23 08:16:29 51°19.117 2°55.555 14.7 14 0.2 101130 68
2005-02-23 08:16:33 51°19.122 2°55.575 14.1 7 0.2 101130 68
2005-02-23 08:16:39 51°19.129 2°55.603 14 7 0.2 101140 67
2005-02-23 08:16:43 51°19.134 2°55.622 14.5 8 0.2 101140 67
2005-02-23 08:16:49 51°19.142 2°55.655 14.9 14 0.2 101140 67
2005-02-23 08:16:55 51°19.149 2°55.682 14.3 13 0.2 101140 67
2005-02-23 08:16:59 51°19.153 2°55.703 14.2 8 0.3 101140 68
2005-02-23 08:17:05 51°19.16 2°55.732 15.7 12 0.3 101140 68
2005-02-23 08:17:09 51°19.165 2°55.753 15.8 13 0.3 101140 69
2005-02-23 08:17:14 51°19.171 2°55.778 15.9 5 0.3 101150 69
2005-02-23 08:17:19 51°19.178 2°55.802 14.7 10 0.3 101150 69
2005-02-23 08:17:25 51°19.185 2°55.833 14.3 9 0.3 101150 69
2005-02-23 08:17:29 51°19.191 2°55.855 14.4 7 0.3 101140 69
2005-02-23 08:17:33 51°19.196 2°55.875 13.6 4 0.3 101140 69
2005-02-23 08:17:40 51°19.205 2°55.907 13.7 4 0.3 101140 68
2005-02-23 08:17:44 51°19.211 2°55.929 13.8 3 0.3 101140 68
2005-02-23 08:17:49 51°19.217 2°55.954 13.7 5 0.3 101150 68
2005-02-23 08:17:54 51°19.224 2°55.979 13.4 6 0.3 101150 68
2005-02-23 08:17:59 51°19.23 2°56.001 13.8 7 0.3 101150 67
2005-02-23 08:18:04 51°19.237 2°56.028 13.2 6 0.3 101150 67
2005-02-23 08:18:09 51°19.243 2°56.053 13.6 5 0.3 101150 67
2005-02-23 08:18:15 51°19.251 2°56.08 14.1 2 0.3 101150 67
2005-02-23 08:18:19 51°19.256 2°56.1 13.9 8 0.2 101150 67
2005-02-23 08:18:24 51°19.264 2°56.127 13.8 4 0.2 101150 67
2005-02-23 08:18:29 51°19.271 2°56.152 13.4 4 0.2 101150 67
2005-02-23 08:18:35 51°19.279 2°56.18 13.1 9 0.2 101150 67
2005-02-23 08:18:39 51°19.284 2°56.2 11.9 10 0.2 101150 67
2005-02-23 08:18:44 51°19.291 2°56.226 12.3 10 0.2 101150 67
2005-02-23 08:18:50 51°19.299 2°56.253 14.2 13 0.2 101160 67
2005-02-23 08:18:55 51°19.305 2°56.277 13.6 15 0.2 101160 67
2005-02-23 08:18:59 51°19.311 2°56.296 14 10 0.2 101160 67
2005-02-23 08:19:03 51°19.316 2°56.315 14.3 16 0.2 101160 67
2005-02-23 08:19:09 51°19.325 2°56.347 13.5 14 0.3 101150 68
2005-02-23 08:19:14 51°19.332 2°56.371 13.3 17 0.3 101150 68
2005-02-23 08:19:19 51°19.339 2°56.396 13.2 10 0.3 101150 68
2005-02-23 08:19:25 51°19.347 2°56.423 13.2 9 0.3 101150 68
2005-02-23 08:19:29 51°19.352 2°56.444 13.9 8 0.3 101150 68
2005-02-23 08:19:34 51°19.359 2°56.469 13.3 7 0.3 101150 68
2005-02-23 08:19:39 51°19.366 2°56.493 13.2 12 0.3 101150 67
2005-02-23 08:19:45 51°19.373 2°56.519 13.3 9 0.3 101150 67
2005-02-23 08:19:49 51°19.38 2°56.541 14.3 11 0.3 101150 67
2005-02-23 08:19:53 51°19.384 2°56.561 13.6 12 0.3 101150 67
2005-02-23 08:19:59 51°19.392 2°56.589 14.5 11 0.3 101150 67
2005-02-23 08:20:04 51°19.398 2°56.613 14.2 13 0.3 101150 67
2005-02-23 08:20:09 51°19.405 2°56.637 14.1 13 0.3 101160 66
2005-02-23 08:20:15 51°19.412 2°56.664 12.8 6 0.3 101160 66
2005-02-23 08:20:19 51°19.418 2°56.683 13.4 11 0.3 101150 66
2005-02-23 08:20:25 51°19.425 2°56.711 13.1 7 0.3 101150 66
2005-02-23 08:20:29 51°19.431 2°56.733 13 15 0.3 101150 66
2005-02-23 08:20:35 51°19.439 2°56.759 12.1 9 0.3 101150 66
2005-02-23 08:20:39 51°19.443 2°56.779 12.9 10 0.3 101160 66
2005-02-23 08:20:44 51°19.451 2°56.805 13.2 10 0.3 101150 65
2005-02-23 08:20:50 51°19.457 2°56.832 13.5 11 0.3 101150 65
2005-02-23 08:20:54 51°19.463 2°56.853 13 10 0.3 101150 65
2005-02-23 08:20:59 51°19.469 2°56.875 12.9 10 0.3 101150 66
2005-02-23 08:21:04 51°19.476 2°56.901 12.1 12 0.3 101150 66
2005-02-23 08:21:09 51°19.483 2°56.925 12.4 7 0.3 101150 65
2005-02-23 08:21:13 51°19.487 2°56.944 13.3 6 0.3 101150 65
2005-02-23 08:21:19 51°19.494 2°56.97 13.9 12 0.3 101160 65
2005-02-23 08:21:24 51°19.502 2°56.997 13.4 10 0.3 101160 65
2005-02-23 08:21:29 51°19.508 2°57.021 13.5 11 0.3 101160 65
2005-02-23 08:21:35 51°19.516 2°57.047 13.9 7 0.3 101160 65
2005-02-23 08:21:40 51°19.523 2°57.071 14.4 10 0.3 101150 66
2005-02-23 08:21:45 51°19.529 2°57.095 14.2 7 0.3 101150 66
2005-02-23 08:21:49 51°19.534 2°57.114 13.9 8 0.3 101150 67
2005-02-23 08:21:53 51°19.54 2°57.136 15.4 8 0.3 101150 67
2005-02-23 08:21:59 51°19.548 2°57.165 14.9 8 0.3 101150 66
2005-02-23 08:22:05 51°19.555 2°57.192 15.3 7 0.3 101150 66
2005-02-23 08:22:09 51°19.562 2°57.212 14.3 11 0.3 101160 65
2005-02-23 08:22:14 51°19.569 2°57.237 14.6 5 0.3 101160 65
2005-02-23 08:22:19 51°19.574 2°57.258 15 10 0.3 101160 66
2005-02-23 08:22:25 51°19.582 2°57.287 14.2 10 0.3 101160 66
2005-02-23 08:22:29 51°19.588 2°57.309 14 7 0.3 101160 65
2005-02-23 08:22:35 51°19.595 2°57.336 14.5 10 0.3 101160 65
2005-02-23 08:22:39 51°19.601 2°57.355 13.9 10 0.3 101160 64
2005-02-23 08:22:45 51°19.609 2°57.384 13.1 12 0.3 101160 64
2005-02-23 08:22:49 51°19.615 2°57.403 14.3 14 0.3 101150 63
2005-02-23 08:22:55 51°19.622 2°57.433 13.1 11 0.3 101150 63
2005-02-23 08:22:59 51°19.628 2°57.451 15 7 0.3 101150 63
2005-02-23 08:23:04 51°19.635 2°57.478 15.4 3 0.3 101150 63
2005-02-23 08:23:10 51°19.643 2°57.504 13.9 6 0.3 101150 62
2005-02-23 08:23:15 51°19.65 2°57.529 13.8 6 0.3 101150 62
2005-02-23 08:23:19 51°19.656 2°57.551 14.8 2 0.2 101160 63
2005-02-23 08:23:25 51°19.663 2°57.578 15.1 13 0.2 101160 63
2005-02-23 08:23:29 51°19.669 2°57.599 13.5 14 0.3 101160 64
2005-02-23 08:23:33 51°19.674 2°57.619 13.7 13 0.3 101160 64
2005-02-23 08:23:39 51°19.681 2°57.646 13.7 9 0.3 101160 64
2005-02-23 08:23:45 51°19.689 2°57.675 13.5 7 0.3 101160 64
2005-02-23 08:23:49 51°19.695 2°57.694 13.9 13 0.3 101150 65
2005-02-23 08:23:55 51°19.704 2°57.724 14 8 0.3 101160 65
2005-02-23 08:23:59 51°19.708 2°57.744 13.7 7 0.3 101160 65
2005-02-23 08:24:04 51°19.717 2°57.77 15.2 2 0.3 101160 65
2005-02-23 08:24:09 51°19.723 2°57.794 13.3 5 0.3 101150 65
2005-02-23 08:24:14 51°19.729 2°57.815 13.8 3 0.3 101150 65
2005-02-23 08:24:19 51°19.735 2°57.841 13.3 359 0.3 101170 65
2005-02-23 08:24:24 51°19.743 2°57.867 13.9 7 0.3 101170 65
2005-02-23 08:24:29 51°19.75 2°57.892 13.7 359 0.3 101150 65
2005-02-23 08:24:35 51°19.756 2°57.919 13.8 11 0.3 101150 65
2005-02-23 08:24:39 51°19.762 2°57.938 15 9 0.3 101160 65
2005-02-23 08:24:45 51°19.77 2°57.969 13.5 9 0.3 101160 65
2005-02-23 08:24:49 51°19.776 2°57.99 12.8 10 0.3 101150 65
2005-02-23 08:24:55 51°19.783 2°58.017 12.9 9 0.3 101150 65
2005-02-23 08:24:59 51°19.789 2°58.037 13.1 5 0.3 101150 66
2005-02-23 08:25:04 51°19.796 2°58.065 14.2 9 0.3 101150 66
2005-02-23 08:25:10 51°19.803 2°58.092 13.2 11 0.4 101170 67
2005-02-23 08:25:14 51°19.81 2°58.114 13 9 0.4 101170 67
2005-02-23 08:25:19 51°19.817 2°58.137 13.9 13 0.4 101160 67
2005-02-23 08:25:24 51°19.824 2°58.164 13.1 5 0.4 101160 67
2005-02-23 08:25:29 51°19.83 2°58.187 13.4 360 0.4 101160 67
2005-02-23 08:25:35 51°19.838 2°58.216 13 11 0.4 101160 67
2005-02-23 08:25:39 51°19.843 2°58.237 15 8 0.4 101160 67
2005-02-23 08:25:45 51°19.851 2°58.267 14.5 10 0.4 101160 67
2005-02-23 08:25:49 51°19.858 2°58.291 15.6 5 0.5 101160 67
2005-02-23 08:25:53 51°19.863 2°58.31 15.4 8 0.5 101150 68
2005-02-23 08:25:59 51°19.871 2°58.338 15.2 7 0.5 101150 68
2005-02-23 08:26:05 51°19.88 2°58.368 14.8 8 0.5 101150 68
2005-02-23 08:26:09 51°19.886 2°58.391 14.5 5 0.5 101140 68
2005-02-23 08:26:15 51°19.893 2°58.418 14.7 6 0.5 101150 66
2005-02-23 08:26:19 51°19.899 2°58.437 14 9 0.5 101150 66
2005-02-23 08:26:25 51°19.908 2°58.468 15.3 2 0.5 101150 66
2005-02-23 08:26:30 51°19.915 2°58.493 15.1 10 0.5 101150 64
2005-02-23 08:26:35 51°19.922 2°58.518 16.2 6 0.4 101160 64
2005-02-23 08:26:40 51°19.928 2°58.543 15.3 7 0.4 101160 64
2005-02-23 08:26:44 51°19.935 2°58.565 14.3 7 0.4 101160 64
2005-02-23 08:26:49 51°19.941 2°58.59 15.8 6 0.5 101160 65
2005-02-23 08:26:55 51°19.95 2°58.618 15.3 11 0.5 101160 65
2005-02-23 08:27:00 51°19.957 2°58.643 15.5 6 0.5 101150 64
2005-02-23 08:27:05 51°19.964 2°58.668 15 7 0.4 101140 62
2005-02-23 08:27:09 51°19.97 2°58.689 14.3 7 0.4 101140 62
2005-02-23 08:27:15 51°19.979 2°58.717 14.7 5 0.4 101140 62
2005-02-23 08:27:19 51°19.983 2°58.737 15.6 10 0.4 101150 62
2005-02-23 08:27:25 51°19.993 2°58.766 15.3 9 0.4 101150 62
2005-02-23 08:27:29 51°19.999 2°58.789 14.9 4 0.4 101160 63
2005-02-23 08:27:34 51°20.006 2°58.814 15.5 6 0.4 101160 63
2005-02-23 08:27:39 51°20.013 2°58.836 14.8 -999 0.4 101150 63
2005-02-23 08:27:45 51°20.021 2°58.867 14.5 4 0.4 101150 63
2005-02-23 08:27:49 51°20.028 2°58.889 15.3 2 0.4 101150 62
2005-02-23 08:27:55 51°20.035 2°58.916 14.4 2 0.4 101150 62
2005-02-23 08:27:59 51°20.042 2°58.935 14.4 4 0.4 101150 62
2005-02-23 08:28:04 51°20.049 2°58.964 15.3 1 0.4 101150 62
2005-02-23 08:28:09 51°20.056 2°58.989 14.6 360 0.4 101160 62
2005-02-23 08:28:13 51°20.061 2°59.009 14.7 -999 0.4 101160 62
2005-02-23 08:28:19 51°20.07 2°59.039 14.8 5 0.4 101160 62
2005-02-23 08:28:25 51°20.078 2°59.065 13.5 2 0.4 101160 62
2005-02-23 08:28:29 51°20.084 2°59.088 13.9 2 0.4 101160 61
2005-02-23 08:28:34 51°20.091 2°59.112 14.7 -999 0.4 101160 62
2005-02-23 08:28:39 51°20.097 2°59.135 15.2 1 0.4 101160 62
2005-02-23 08:28:43 51°20.103 2°59.155 15.1 359 0.4 101150 62
2005-02-23 08:28:49 51°20.112 2°59.188 14.4 -999 0.4 101150 62
2005-02-23 08:28:55 51°20.12 2°59.215 14 360 0.4 101150 62
2005-02-23 08:28:59 51°20.126 2°59.237 13.9 3 0.4 101150 63
2005-02-23 08:29:05 51°20.133 2°59.265 14.6 2 0.4 101150 63
2005-02-23 08:29:09 51°20.139 2°59.286 13.2 1 0.4 101150 62
2005-02-23 08:29:14 51°20.147 2°59.312 14.2 359 0.4 101150 62
2005-02-23 08:29:19 51°20.153 2°59.334 13.9 5 0.4 101160 61
2005-02-23 08:29:24 51°20.16 2°59.361 13.9 9 0.4 101160 61
2005-02-23 08:29:29 51°20.167 2°59.386 14.3 8 0.4 101160 61
2005-02-23 08:29:34 51°20.174 2°59.408 14.3 7 0.4 101160 61
2005-02-23 08:29:39 51°20.181 2°59.432 14.2 9 0.4 101150 61
2005-02-23 08:29:45 51°20.189 2°59.463 13.7 8 0.4 101160 63
2005-02-23 08:29:50 51°20.196 2°59.488 13.7 7 0.4 101160 63
2005-02-23 08:29:54 51°20.201 2°59.508 13.5 9 0.4 101160 63
2005-02-23 08:30:00 51°20.21 2°59.538 13.7 3 0.4 101160 63
2005-02-23 08:30:04 51°20.216 2°59.558 15.7 5 0.4 101160 63
2005-02-23 08:30:09 51°20.223 2°59.586 14.2 2 0.4 101160 62
2005-02-23 08:30:15 51°20.231 2°59.613 13.6 5 0.4 101160 63
2005-02-23 08:30:19 51°20.236 2°59.632 13.9 360 0.4 101160 63
2005-02-23 08:30:24 51°20.244 2°59.66 14.7 355 0.4 101160 63
2005-02-23 08:30:29 51°20.25 2°59.685 13.5 6 0.4 101160 64
2005-02-23 08:30:33 51°20.256 2°59.706 14.7 3 0.4 101160 63
2005-02-23 08:30:38 51°20.263 2°59.73 13.9 360 0.4 101160 63
2005-02-23 08:30:44 51°20.271 2°59.761 15.2 2 0.4 101160 63
2005-02-23 08:30:49 51°20.278 2°59.785 15.3 358 0.4 101160 63
2005-02-23 08:30:55 51°20.286 2°59.814 15.6 359 0.4 101160 63
2005-02-23 08:30:59 51°20.292 2°59.833 14.8 358 0.4 101160 63
2005-02-23 08:31:05 51°20.3 2°59.862 15.3 359 0.4 101150 63
2005-02-23 08:31:09 51°20.306 2°59.885 15.4 4 0.4 101150 63
2005-02-23 08:31:13 51°20.312 2°59.904 14.3 3 0.4 101150 63
2005-02-23 08:31:19 51°20.319 2°59.932 13.8 4 0.4 101160 62
2005-02-23 08:31:24 51°20.326 2°59.959 12.9 6 0.4 101160 62
2005-02-23 08:31:29 51°20.333 2°59.984 12.8 3 0.4 101150 62
2005-02-23 08:31:35 51°20.341 3°0.012 13.7 6 0.4 101150 62
2005-02-23 08:31:39 51°20.346 3°0.032 13.1 2 0.4 101150 62
2005-02-23 08:31:45 51°20.354 3°0.06 13.2 4 0.4 101150 62
2005-02-23 08:31:50 51°20.362 3°0.086 12.8 6 0.4 101160 62
2005-02-23 08:31:54 51°20.368 3°0.105 13.6 2 0.4 101160 62
2005-02-23 08:31:59 51°20.375 3°0.13 14.7 2 0.4 101170 63
2005-02-23 08:32:05 51°20.384 3°0.16 14.8 354 0.4 101170 63
2005-02-23 08:32:10 51°20.39 3°0.185 14.4 358 0.4 101160 63
2005-02-23 08:32:15 51°20.397 3°0.21 15.4 360 0.4 101160 64
2005-02-23 08:32:19 51°20.403 3°0.231 14.2 -999 0.4 101160 64
2005-02-23 08:32:24 51°20.41 3°0.258 14.4 -999 0.4 101160 64
2005-02-23 08:32:30 51°20.417 3°0.285 14.2 5 0.4 101160 65
2005-02-23 08:32:35 51°20.424 3°0.31 13.7 3 0.4 101160 65
2005-02-23 08:32:39 51°20.43 3°0.33 15 5 0.4 101150 65
2005-02-23 08:32:44 51°20.437 3°0.358 14 3 0.4 101150 65
2005-02-23 08:32:49 51°20.445 3°0.383 14.6 359 0.4 101160 65
2005-02-23 08:32:55 51°20.452 3°0.41 13.8 360 0.4 101160 65
2005-02-23 08:32:59 51°20.459 3°0.429 13 1 0.4 101160 66
2005-02-23 08:33:04 51°20.466 3°0.457 13.9 3 0.4 101160 66
2005-02-23 08:33:10 51°20.474 3°0.483 13 2 0.4 101160 66
2005-02-23 08:33:15 51°20.48 3°0.508 14 8 0.5 101160 66
2005-02-23 08:33:20 51°20.487 3°0.533 13.8 5 0.5 101160 66
2005-02-23 08:33:24 51°20.493 3°0.556 13.9 11 0.5 101160 66
2005-02-23 08:33:29 51°20.501 3°0.58 14.9 2 0.5 101160 66
2005-02-23 08:33:35 51°20.507 3°0.608 13 8 0.5 101160 66
2005-02-23 08:33:39 51°20.514 3°0.628 14.2 9 0.5 101160 67
2005-02-23 08:33:45 51°20.522 3°0.658 14.8 4 0.5 101160 67
2005-02-23 08:33:49 51°20.528 3°0.677 14.3 8 0.5 101170 67
2005-02-23 08:33:54 51°20.535 3°0.704 14.1 359 0.5 101170 67
2005-02-23 08:33:59 51°20.541 3°0.726 14.6 3 0.5 101160 68
2005-02-23 08:34:05 51°20.55 3°0.756 14 358 0.5 101160 67
2005-02-23 08:34:10 51°20.556 3°0.781 13.9 1 0.5 101160 67
2005-02-23 08:34:13 51°20.561 3°0.798 14.6 359 0.5 101160 67
2005-02-23 08:34:18 51°20.568 3°0.823 15 9 0.5 101160 67
2005-02-23 08:34:25 51°20.577 3°0.856 14.9 2 0.5 101160 66
2005-02-23 08:34:29 51°20.582 3°0.878 13.9 6 0.5 101160 66
2005-02-23 08:34:35 51°20.59 3°0.904 13.7 4 0.5 101160 66
2005-02-23 08:34:39 51°20.595 3°0.925 14.4 3 0.5 101150 66
2005-02-23 08:34:42 51°20.6 3°0.942 13.7 1 0.5 101150 66
2005-02-23 08:34:49 51°20.61 3°0.973 13.8 6 0.5 101150 67
2005-02-23 08:34:55 51°20.618 3°1.003 13.1 5 0.5 101190 68
2005-02-23 08:34:59 51°20.624 3°1.026 13.3 4 0.5 101190 68
2005-02-23 08:35:05 51°20.632 3°1.053 13.5 5 0.5 101160 68
2005-02-23 08:35:09 51°20.638 3°1.075 15.7 7 0.5 101160 68
2005-02-23 08:35:15 51°20.646 3°1.101 14.3 1 0.5 101160 68
2005-02-23 08:35:19 51°20.651 3°1.121 14.5 4 0.5 101160 68
2005-02-23 08:35:25 51°20.66 3°1.151 15.1 358 0.5 101160 68
2005-02-23 08:35:29 51°20.666 3°1.174 15.2 359 0.5 101160 68
2005-02-23 08:35:33 51°20.671 3°1.194 14.1 360 0.5 101160 68
2005-02-23 08:35:39 51°20.679 3°1.221 14.1 6 0.5 101150 68
2005-02-23 08:35:45 51°20.688 3°1.25 14.2 2 0.5 101150 68
2005-02-23 08:35:49 51°20.694 3°1.273 13.2 4 0.5 101170 67
2005-02-23 08:35:54 51°20.7 3°1.297 12.8 2 0.5 101170 67
2005-02-23 08:35:59 51°20.707 3°1.319 12.3 8 0.4 101160 66
2005-02-23 08:36:04 51°20.714 3°1.346 11.9 358 0.4 101150 66
2005-02-23 08:36:09 51°20.721 3°1.371 14.2 3 0.4 101150 66
2005-02-23 08:36:14 51°20.727 3°1.392 13.1 3 0.4 101150 66
2005-02-23 08:36:19 51°20.734 3°1.418 14.3 9 0.4 101160 67
2005-02-23 08:36:25 51°20.742 3°1.448 13.6 5 0.4 101160 67
2005-02-23 08:36:30 51°20.749 3°1.472 14.2 3 0.4 101170 66
2005-02-23 08:36:35 51°20.757 3°1.497 14 3 0.4 101170 66
2005-02-23 08:36:39 51°20.761 3°1.517 14.7 7 0.4 101160 66
2005-02-23 08:36:44 51°20.77 3°1.544 13.7 3 0.4 101160 66
2005-02-23 08:36:49 51°20.776 3°1.569 14 4 0.4 101180 66
2005-02-23 08:36:54 51°20.783 3°1.593 15 7 0.4 101180 66
2005-02-23 08:36:59 51°20.79 3°1.615 14.8 4 0.3 101160 67
2005-02-23 08:37:04 51°20.797 3°1.643 14.7 6 0.3 101160 67
2005-02-23 08:37:09 51°20.804 3°1.668 14.5 356 0.3 101160 66
2005-02-23 08:37:15 51°20.811 3°1.696 14.1 1 0.3 101160 66
2005-02-23 08:37:19 51°20.818 3°1.717 14 359 0.3 101160 66
2005-02-23 08:37:24 51°20.824 3°1.743 14.3 5 0.3 101160 66
2005-02-23 08:37:29 51°20.831 3°1.767 14 359 0.3 101160 67
2005-02-23 08:37:34 51°20.837 3°1.792 13.8 1 0.3 101150 66
2005-02-23 08:37:39 51°20.844 3°1.814 13.6 -999 0.3 101150 66
2005-02-23 08:37:44 51°20.851 3°1.841 13.2 360 0.3 101150 66
2005-02-23 08:37:49 51°20.859 3°1.866 12.9 5 0.3 101150 66
2005-02-23 08:37:53 51°20.864 3°1.885 12.5 3 0.3 101150 66
2005-02-23 08:37:59 51°20.873 3°1.915 12.9 -999 0.3 101140 66
2005-02-23 08:38:05 51°20.88 3°1.943 12.1 355 0.3 101140 66
2005-02-23 08:38:09 51°20.885 3°1.965 12.1 1 0.3 101150 65
2005-02-23 08:38:14 51°20.891 3°1.991 13.5 357 0.3 101150 65
2005-02-23 08:38:19 51°20.897 3°2.014 13.1 358 0.3 101160 65
2005-02-23 08:38:25 51°20.905 3°2.044 14.7 358 0.3 101160 65
2005-02-23 08:38:30 51°20.911 3°2.07 12.5 358 0.3 101150 65
2005-02-23 08:38:34 51°20.917 3°2.092 14.7 2 0.3 101150 65
2005-02-23 08:38:39 51°20.922 3°2.115 14.1 352 0.3 101150 65
2005-02-23 08:38:45 51°20.929 3°2.146 13.4 1 0.3 101150 65
2005-02-23 08:38:49 51°20.935 3°2.168 15.3 357 0.3 101150 65
2005-02-23 08:38:54 51°20.941 3°2.191 14.2 355 0.3 101150 65
2005-02-23 08:38:59 51°20.948 3°2.22 14.1 356 0.3 101150 65
2005-02-23 08:39:04 51°20.955 3°2.245 15.2 353 0.3 101150 65
2005-02-23 08:39:10 51°20.961 3°2.272 14.4 360 0.4 101150 66
2005-02-23 08:39:14 51°20.967 3°2.294 13.9 356 0.3 101150 65
2005-02-23 08:39:19 51°20.972 3°2.318 12.9 355 0.3 101150 65
2005-02-23 08:39:24 51°20.979 3°2.345 13.8 2 0.3 101150 65
2005-02-23 08:39:29 51°20.985 3°2.37 13.4 2 0.3 101150 65
2005-02-23 08:39:35 51°20.99 3°2.398 14.3 1 0.3 101150 65
2005-02-23 08:39:39 51°20.997 3°2.417 15.4 3 0.4 101150 65
2005-02-23 08:39:45 51°21.003 3°2.448 14.4 358 0.4 101150 65
2005-02-23 08:39:49 51°21.009 3°2.47 13 3 0.4 101140 64
2005-02-23 08:39:55 51°21.016 3°2.498 13.3 3 0.4 101140 64
2005-02-23 08:39:59 51°21.021 3°2.518 13.2 357 0.3 101160 63
2005-02-23 08:40:05 51°21.028 3°2.549 14.9 360 0.3 101160 63
2005-02-23 08:40:09 51°21.034 3°2.571 13.8 358 0.3 101160 62
2005-02-23 08:40:15 51°21.04 3°2.599 14.1 1 0.3 101160 62
2005-02-23 08:40:20 51°21.047 3°2.624 13.9 358 0.3 101150 63
2005-02-23 08:40:25 51°21.053 3°2.649 13.3 354 0.3 101150 63
2005-02-23 08:40:29 51°21.058 3°2.672 14 356 0.3 101150 63
2005-02-23 08:40:35 51°21.065 3°2.699 13.7 360 0.3 101150 63
2005-02-23 08:40:40 51°21.072 3°2.724 14.5 358 0.3 101160 62
2005-02-23 08:40:44 51°21.077 3°2.747 14 354 0.3 101140 62
2005-02-23 08:40:49 51°21.083 3°2.773 14.6 357 0.3 101140 62
2005-02-23 08:40:54 51°21.088 3°2.798 13.4 3 0.3 101140 62
2005-02-23 08:40:59 51°21.093 3°2.821 14.2 359 0.3 101150 63
2005-02-23 08:41:04 51°21.1 3°2.849 13.7 360 0.3 101150 63
2005-02-23 08:41:09 51°21.105 3°2.875 14.4 355 0.4 101150 62
2005-02-23 08:41:15 51°21.111 3°2.903 13.9 357 0.4 101150 62
2005-02-23 08:41:19 51°21.114 3°2.924 13.6 357 0.4 101140 62
2005-02-23 08:41:24 51°21.12 3°2.953 13.3 358 0.4 101140 62
2005-02-23 08:41:29 51°21.125 3°2.977 14.1 352 0.3 101160 61
2005-02-23 08:41:34 51°21.131 3°3.004 14.2 353 0.4 101150 62
2005-02-23 08:41:39 51°21.136 3°3.03 13.9 359 0.4 101150 62
2005-02-23 08:41:45 51°21.142 3°3.058 14 353 0.4 101150 62
2005-02-23 08:41:49 51°21.147 3°3.081 14.9 353 0.4 101150 62
2005-02-23 08:41:54 51°21.151 3°3.108 14.4 1 0.4 101150 62
2005-02-23 08:41:59 51°21.157 3°3.13 13.5 358 0.4 101150 63
2005-02-23 08:42:04 51°21.162 3°3.159 14 354 0.4 101150 63
2005-02-23 08:42:09 51°21.168 3°3.185 13.5 360 0.4 101160 62
2005-02-23 08:42:13 51°21.172 3°3.205 13.7 2 0.4 101150 62
2005-02-23 08:42:19 51°21.178 3°3.235 13.6 -999 0.4 101150 62
2005-02-23 08:42:25 51°21.184 3°3.265 13.3 2 0.4 101150 62
2005-02-23 08:42:29 51°21.189 3°3.288 14.1 2 0.4 101150 63
2005-02-23 08:42:34 51°21.194 3°3.312 14.2 359 0.4 101150 63
2005-02-23 08:42:40 51°21.2 3°3.342 13.3 359 0.4 101140 63
2005-02-23 08:42:44 51°21.206 3°3.365 15.4 3 0.4 101150 64
2005-02-23 08:42:49 51°21.212 3°3.39 15.2 2 0.4 101150 64
2005-02-23 08:42:54 51°21.218 3°3.416 14.6 359 0.4 101150 64
2005-02-23 08:42:59 51°21.223 3°3.439 13.7 358 0.4 101160 64
2005-02-23 08:43:05 51°21.23 3°3.47 14.3 4 0.4 101160 64
2005-02-23 08:43:09 51°21.235 3°3.493 14.4 4 0.4 101160 64
2005-02-23 08:43:14 51°21.241 3°3.515 14.1 357 0.4 101150 64
2005-02-23 08:43:19 51°21.246 3°3.541 13.4 1 0.4 101150 64
2005-02-23 08:43:24 51°21.254 3°3.569 13.5 4 0.4 101150 64
2005-02-23 08:43:29 51°21.26 3°3.594 14.2 6 0.4 101150 64
2005-02-23 08:43:34 51°21.266 3°3.619 13.4 1 0.4 101150 64
2005-02-23 08:43:39 51°21.272 3°3.646 13.7 359 0.4 101150 64
2005-02-23 08:43:44 51°21.279 3°3.67 14.2 -999 0.4 101150 64
2005-02-23 08:43:49 51°21.284 3°3.696 13.7 352 0.4 101150 64
2005-02-23 08:43:55 51°21.29 3°3.724 12.3 4 0.4 101150 64
2005-02-23 08:43:59 51°21.295 3°3.745 13.9 358 0.4 101150 64
2005-02-23 08:44:05 51°21.303 3°3.776 13.5 3 0.4 101150 64
2005-02-23 08:44:09 51°21.308 3°3.798 13.5 356 0.4 101150 64
2005-02-23 08:44:15 51°21.314 3°3.827 14 5 0.4 101150 64
2005-02-23 08:44:19 51°21.319 3°3.847 12.8 -999 0.4 101150 64
2005-02-23 08:44:24 51°21.325 3°3.875 13.3 -999 0.4 101150 65
2005-02-23 08:44:29 51°21.332 3°3.898 13.9 357 0.4 101150 65
2005-02-23 08:44:33 51°21.336 3°3.921 14.1 1 0.4 101150 65
2005-02-23 08:44:39 51°21.344 3°3.952 12.6 359 0.4 101150 63
2005-02-23 08:44:45 51°21.35 3°3.98 13.4 358 0.4 101160 65
2005-02-23 08:44:49 51°21.355 3°4.003 13.1 4 0.4 101160 65
2005-02-23 08:44:53 51°21.36 3°4.023 14.7 -999 0.4 101160 65
2005-02-23 08:44:59 51°21.366 3°4.052 15.3 357 0.4 101160 64
2005-02-23 08:45:05 51°21.374 3°4.082 14.5 355 0.4 101160 64
2005-02-23 08:45:09 51°21.378 3°4.106 14.4 358 0.4 101150 64
2005-02-23 08:45:14 51°21.385 3°4.131 15.2 358 0.4 101150 64
2005-02-23 08:45:19 51°21.39 3°4.154 14.7 355 0.4 101150 65
2005-02-23 08:45:25 51°21.397 3°4.185 13.8 358 0.4 101150 64
2005-02-23 08:45:30 51°21.403 3°4.209 14 356 0.4 101150 64
2005-02-23 08:45:35 51°21.41 3°4.235 14.1 358 0.4 101150 64
2005-02-23 08:45:39 51°21.415 3°4.256 13.7 359 0.4 101150 64
2005-02-23 08:45:44 51°21.421 3°4.284 14 358 0.4 101150 64
2005-02-23 08:45:49 51°21.426 3°4.307 13.6 360 0.4 101150 64
2005-02-23 08:45:55 51°21.434 3°4.338 14.5 1 0.4 101150 64
2005-02-23 08:45:59 51°21.439 3°4.358 13.5 2 0.4 101150 64
2005-02-23 08:46:05 51°21.446 3°4.39 13.6 359 0.4 101150 64
2005-02-23 08:46:10 51°21.452 3°4.415 14.6 3 0.4 101150 64
2005-02-23 08:46:14 51°21.457 3°4.438 14.6 1 0.4 101160 64
2005-02-23 08:46:19 51°21.463 3°4.464 13.6 2 0.4 101160 64
2005-02-23 08:46:24 51°21.469 3°4.489 14.3 351 0.4 101160 64
2005-02-23 08:46:29 51°21.474 3°4.515 14.7 356 0.4 101160 64
2005-02-23 08:46:35 51°21.482 3°4.543 14.9 355 0.4 101160 64
2005-02-23 08:46:40 51°21.488 3°4.569 15.3 352 0.4 101160 64
2005-02-23 08:46:44 51°21.493 3°4.592 14.2 357 0.4 101160 64
2005-02-23 08:46:49 51°21.498 3°4.616 13.5 360 0.4 101160 64
2005-02-23 08:46:54 51°21.505 3°4.643 13.5 355 0.4 101150 64
2005-02-23 08:46:59 51°21.509 3°4.667 14.1 355 0.4 101150 64
2005-02-23 08:47:04 51°21.517 3°4.695 13.8 358 0.4 101150 63
2005-02-23 08:47:09 51°21.522 3°4.719 13.8 350 0.4 101150 63
2005-02-23 08:47:14 51°21.529 3°4.747 15.2 356 0.4 101150 63
2005-02-23 08:47:19 51°21.534 3°4.77 14.3 -999 0.4 101150 64
2005-02-23 08:47:24 51°21.541 3°4.798 14.5 353 0.4 101160 66
2005-02-23 08:47:29 51°21.547 3°4.824 14.4 353 0.4 101160 66
2005-02-23 08:47:34 51°21.553 3°4.849 14.4 358 0.4 101160 66
2005-02-23 08:47:39 51°21.558 3°4.872 14.8 355 0.5 101160 67
2005-02-23 08:47:44 51°21.564 3°4.9 12.9 359 0.5 101150 65
2005-02-23 08:47:49 51°21.571 3°4.926 15 353 0.5 101150 65
2005-02-23 08:47:54 51°21.576 3°4.95 14.6 352 0.5 101150 65
2005-02-23 08:47:59 51°21.582 3°4.974 14.7 355 0.4 101150 64
2005-02-23 08:48:04 51°21.588 3°5.003 13.2 354 0.4 101150 64
2005-02-23 08:48:09 51°21.594 3°5.029 14.5 355 0.4 101160 63
2005-02-23 08:48:15 51°21.6 3°5.057 13.9 355 0.4 101160 63
2005-02-23 08:48:19 51°21.606 3°5.077 13.8 357 0.4 101160 63
2005-02-23 08:48:25 51°21.612 3°5.109 14.1 350 0.4 101160 63
2005-02-23 08:48:29 51°21.618 3°5.132 13.6 357 0.4 101160 64
2005-02-23 08:48:34 51°21.623 3°5.158 13.5 354 0.4 101160 64
2005-02-23 08:48:39 51°21.629 3°5.181 14.3 354 0.4 101160 64
2005-02-23 08:48:45 51°21.636 3°5.212 14.1 350 0.4 101160 64
2005-02-23 08:48:49 51°21.64 3°5.233 15.1 354 0.4 101170 65
2005-02-23 08:48:54 51°21.647 3°5.261 14.6 355 0.4 101160 64
2005-02-23 08:48:59 51°21.653 3°5.284 13.4 356 0.4 101160 64
2005-02-23 08:49:05 51°21.659 3°5.315 14.7 354 0.4 101160 64
2005-02-23 08:49:09 51°21.665 3°5.338 13.9 356 0.4 101160 64
2005-02-23 08:49:15 51°21.671 3°5.367 14.3 358 0.4 101160 64
2005-02-23 08:49:19 51°21.676 3°5.387 14.4 2 0.4 101160 65
2005-02-23 08:49:24 51°21.683 3°5.415 14.9 356 0.4 101160 65
2005-02-23 08:49:29 51°21.688 3°5.441 14 1 0.4 101160 65
2005-02-23 08:49:34 51°21.695 3°5.467 14.4 355 0.4 101160 65
2005-02-23 08:49:39 51°21.699 3°5.491 14.2 358 0.4 101160 65
2005-02-23 08:49:44 51°21.706 3°5.519 13.3 358 0.4 101150 65
2005-02-23 08:49:49 51°21.71 3°5.546 14.1 354 0.4 101150 65
2005-02-23 08:49:54 51°21.715 3°5.572 13 357 0.4 101150 65
2005-02-23 08:49:59 51°21.719 3°5.597 13.6 352 0.4 101150 64
2005-02-23 08:50:05 51°21.724 3°5.629 13.5 355 0.4 101150 64
2005-02-23 08:50:09 51°21.728 3°5.653 13.1 355 0.4 101150 64
2005-02-23 08:50:15 51°21.734 3°5.681 13.2 354 0.4 101150 64
2005-02-23 08:50:19 51°21.738 3°5.706 13.1 358 0.3 101160 64
2005-02-23 08:50:25 51°21.743 3°5.736 12.5 356 0.3 101160 64
2005-02-23 08:50:29 51°21.748 3°5.759 12.8 -999 0.3 101160 64
2005-02-23 08:50:35 51°21.752 3°5.789 12.9 354 0.3 101160 64
2005-02-23 08:50:39 51°21.756 3°5.81 13.9 357 0.3 101150 64
2005-02-23 08:50:44 51°21.761 3°5.839 14.8 350 0.3 101150 64
2005-02-23 08:50:49 51°21.765 3°5.866 13.5 354 0.3 101150 64
2005-02-23 08:50:54 51°21.77 3°5.892 13.8 356 0.3 101160 65
2005-02-23 08:50:59 51°21.774 3°5.916 14.2 359 0.3 101160 65
2005-02-23 08:51:05 51°21.78 3°5.949 14.6 354 0.3 101160 65
2005-02-23 08:51:09 51°21.783 3°5.973 13.6 349 0.3 101160 65
2005-02-23 08:51:13 51°21.786 3°5.994 14.2 351 0.3 101160 65
2005-02-23 08:51:20 51°21.79 3°6.029 14.5 347 0.3 101150 65